Location: Port-Aux-Quilles Astronomical Observatory
(47.9769°N, 69.9642°W)
Time: 07:36:03
(UTC-05:00)

Envisat - Pass Details

Date: 22 October 2019
Orbit: 764 x 766 km, 98.1° (Epoch: 13 November)

Event Time Altitude Azimuth Distance (km) Brightness Sun altitude
Rises 18:55:52 0° 175° (S) 3,220 6.2 -13.6°
Reaches altitude 10° 18:58:12 10° 179° (S) 2,298 5.5 -14.0°
Maximum altitude 19:03:12 59° 259° (W) 884 3.6 -14.8°
Drops below altitude 10° 19:08:14 10° 339° (NNW) 2,314 5.8 -15.6°
Sets 19:10:36 0° 344° (NNW) 3,245 6.5 -16.0°
